Flag for U.S.A. Weather past 2 weeks in New City, New York, U.S.A.

Now
34 °F

Partly sunny.


Feels Like: 25 °F
Forecast: 31 / 39 °F
Wind: 14 mph from Northwest

Location: Westchester County Airport

Current Time: Dec 19, 2014 at 8:43:20 AM

Latest Report: Dec 19, 2014 at 7:56 AM


Visibility: 10 mi

Pressure: 30.01 "Hg

Humidity: 61%

Dew point: 22 °F

Location of New CityLocation

Historic Weather in New City — Graph

°F

New City temperature yesterday

Maximum temperature yesterday: 40 °F (at 12:56 AM)
Minimum temperature yesterday: 34 °F (at 11:56 PM)
Average temperature yesterday: 37 °F

Past Weeks' High & Low Weather Summary

 TemperatureHumidityPressure
High50 °F (Dec 17, 11:56 AM)100% (Dec 6, 7:56 AM)30.71 "Hg (Dec 6, 7:56 AM)
Low20 °F (Dec 8, 5:56 AM)23% (Dec 7, 10:56 PM)29.54 "Hg (Dec 10, 2:56 PM)
Average36 °F72%30.05 "Hg
* Reported Dec 4 7:56 AM — Dec 19 7:56 AM, New City, Weather by CustomWeather, © 2014

Note: Actual official high and low records may vary slightly from our data, if they occured in-between our weather recording intervals... More about our weather records

Advertising

New City weather history for previous 24 hours

 ConditionsComfort  
Time TempWeatherWind HumidityBarometerVisibility
7:56 AM
Dec 19
34 °FPartly sunny.14 mph61%30.01 "Hg10 mi
6:56 AM35 °FPassing clouds.15 mph61%29.98 "Hg10 mi
5:56 AM35 °FPassing clouds.13 mph61%29.97 "Hg10 mi
4:56 AM35 °FPassing clouds.13 mph64%29.96 "Hg10 mi
3:56 AM35 °FPassing clouds.15 mph64%29.95 "Hg10 mi
2:56 AM35 °FPassing clouds.14 mph67%29.95 "Hg10 mi
1:56 AM35 °FPassing clouds.10 mph67%29.95 "Hg10 mi
12:56 AM35 °FPassing clouds.9 mph67%29.94 "Hg10 mi
11:56 PM
Dec 18
34 °FClear.10 mph70%29.94 "Hg10 mi
10:56 PM35 °FClear.12 mph70%29.95 "Hg10 mi
9:56 PM35 °FClear.13 mph70%29.95 "Hg10 mi
8:56 PM35 °FPassing clouds.12 mph70%29.94 "Hg10 mi
7:56 PM36 °FPassing clouds.15 mph67%29.95 "Hg10 mi
6:56 PM36 °FPassing clouds.13 mph67%29.95 "Hg10 mi
5:56 PM36 °FPassing clouds.14 mph67%29.94 "Hg10 mi
4:56 PM36 °FPassing clouds.15 mph64%29.94 "Hg10 mi
3:56 PM38 °FPartly sunny.16 mph60%29.94 "Hg10 mi
2:56 PM40 °FPartly sunny.20 mph55%29.91 "Hg10 mi
1:56 PM40 °FScattered clouds.16 mph53%29.90 "Hg10 mi
12:56 PM39 °FPartly sunny.18 mph55%29.92 "Hg10 mi
11:56 AM39 °FPartly sunny.18 mph53%29.93 "Hg10 mi
10:56 AM39 °FPartly sunny.13 mph53%29.95 "Hg10 mi
9:56 AM38 °FScattered clouds.21 mph55%29.96 "Hg10 mi
8:56 AM36 °FScattered clouds.18 mph59%29.94 "Hg10 mi
Weather by CustomWeather, © 2014

See weather overviewHow to use our weather pages